COSMOS 1275 DEB, 39945

Orbit data source: Space-Track

COSMOS 1275 DEB, 39945 is space debris in LEO originally from a launch on Thu, 04 Jun 1981 UTC launched from the Plesetsk Missile And Space Complex (PKMTR). Debris objects in space refer to the collection of defunct objects orbiting the Earth. Examples of debris include non-operational satellites, rocket bodies, and fragments generated from explosions, collisions, or faulty payload assembly.

Loading next visibility...
Identifier
39945, 1981-053NF
Orbit
LEO
Country
Flag of CISCIS
Related business
Manufacturer
Unknown
Mission
Spacecraft
Bus & Motor
Unknown
Mass
Unknown
Launch date (UTC)
1981-06-04 (45 years ago)
Launch vehicle
Unknown
Launch site
Plesetsk Missile And Space Complex (PKMTR)
Object type
Payload
Rocket body
Debris
Shape & HBR
Unknown shape, 0.1 m
Radar Cross Section
Small (<0.1 m²)

Expand to show TLE details & history
Last TLE update: 1 day ago

TLE from 1 day ago
0 COSMOS 1275 DEB
1 39945U 81053NF  25341.79472906  .00000491  00000-0  45225-3 0  9991
2 39945  82.9531 351.6783 0039706 173.0696   8.3913 13.80392422579357
Epoch: 2025-12-07T19:04Z
TLE epoch observation values (Epoch: 2025-12-07T19:04:24.590Z)
Latitude
-1.64112°
Longitude
168.97471°
Altitude
936.793 km
Speed
7.398 km/s
True Right ascension
11h 27m 31s
True Declination
-1° 37' 54"
Sunlit
Object was in daylight at epoch
Visualization orbit readout
Latitude
Unknown
Longitude
Unknown
Altitude
Unknown
Speed
Unknown
Apparent Right ascension
Unknown
Apparent Declination
Unknown
Sunlit
N/A
Visualization observer readout
Local Sidereal Time
00:28:25
Azimuth
Unknown
Elevation
Unknown
Doppler factor
Unknown
Orbital elements
Apogee altitude
988.771 km
Perigee altitude
930.501 km
Semi-major axis
7,337.773 km
Eccentricity
0.00397
Inclination
82.9531°
RAAN
351.6783°
Arg. of periapsis
173.0696°
True anomaly
8.45803°
Mean anomaly
8.3913°
Eccentric anomaly
8.42463°
Mean motion
3.453 °/min
Orbital period
104.26 mins
BSTAR
0.00045225
Loading maneuver chart data...
Computing Atmospheric mass density...

Documentation

Showing up to 5 results
|